Orbital Elements at Epoch 2459200.5 (2020-Dec-17.0) TDB
Reference: JPL 16 (heliocentric ecliptic J2000)
Element | Value | Uncertainty (1-sigma) | Units |
e | .168348625898813 | 6.3144e-08 | |
a | 2.601860809096921 | 1.6043e-08 | au |
q | 2.163841117105481 | 1.5954e-07 | au |
i | 28.95018684597493 | 7.1544e-06 | deg |
node | 339.8418209410964 | 1.1886e-05 | deg |
peri | 28.57415963968581 | 2.4292e-05 | deg |
M | 46.8570698043418 | 2.0165e-05 | deg |
tp | 2459000.975081531668 (2020-May-31.47508153) | 8.5362e-05 | TDB |
period | 1532.937739140141 4.20 | 1.4178e-05 3.882e-08 | d yr |
n | .2348431973512063 | 2.172e-09 | deg/d |
Q | 3.039880501088361 | 1.8743e-08 | au |
|
| | Orbit Determination Parameters
Additional Information
|